[[{"header":{"parameterUnit":"m.s-1","parameterCategory":1,"la1":30.2991,"la2":30.254,"lo1":-89.0895,"lo2":-89.0444,"dy":0.0017,"dx":0.0017,"nx":28,"ny":28,"refTime":"2025-03-24T03:00:00:Z","depth":0,"parameterNumber":2,"parameterNumberName":"U-component_of_WINDS"},"data":[0,0,0,0,0,0,0,0,0,0,0,0,0,0,0,0,0,0,0,0,0,0,0,0,0,0,0,0,0,0,0,0,0,0,0,0,0,0,0,0,0,0,0,0,0,0,0,0,0,0,0,0,0,0,0,0,0,0,-0.2661,-0.266,0,-0.2633,-0.2633,-0.2633,-0.2605,-0.2604,-0.2604,-0.2604,-0.2574,-0.2574,-0.2573,0,0,0,0,0,0,0,0,0,0,0,0,0,-0.2688,-0.2687,-0.2661,-0.266,-0.266,-0.2633,-0.2633,-0.2633,-0.2605,-0.2604,-0.2604,-0.2604,-0.2574,-0.2574,-0.2573,0,0,0,0,0,0,0,0,0,0,0,0,0,-0.267,-0.2687,-0.2661,-0.2643,-0.2641,-0.2633,-0.2633,-0.2633,-0.2605,-0.2604,-0.2604,-0.2603,-0.2574,-0.2574,-0.2573,-0.258,0,0,-0.2571,-0.2571,0,0,0,0,0,0,0,0,-0.2671,-0.2669,-0.2646,-0.2644,-0.2642,-0.2622,-0.2632,-0.2615,-0.2605,-0.2619,-0.2604,-0.2603,-0.259,-0.2588,-0.2584,-0.2579,-0.2578,-0.2571,-0.2571,-0.257,-0.257,0,0,0,0,0,0,0,-0.2672,-0.267,-0.265,-0.2646,-0.2643,-0.2636,-0.2633,-0.2628,-0.2608,-0.2618,-0.2615,-0.2613,-0.2589,-0.2585,-0.2584,-0.2577,-0.2571,-0.2571,-0.257,-0.257,-0.2575,-0.2576,0,0,0,0,0,0,-0.2676,-0.2671,-0.2651,-0.2649,-0.2655,-0.2636,-0.2632,-0.2629,-0.2608,-0.2604,-0.2613,-0.2611,-0.2587,-0.2584,-0.2582,-0.2588,-0.257,-0.257,-0.2569,-0.2575,-0.2575,-0.2576,0,0,0,0,0,0,-0.2677,-0.2675,-0.2652,-0.2659,-0.2656,-0.2636,-0.2633,-0.2629,-0.2625,-0.2605,-0.2601,-0.2613,-0.2586,-0.2583,-0.2581,-0.2587,-0.2569,-0.2569,-0.2574,-0.2575,-0.2576,-0.2601,0,0,0,0,0,0,-0.2678,-0.2675,-0.2678,-0.266,-0.2656,-0.2651,-0.2633,-0.2629,-0.2624,-0.2621,-0.2603,-0.26,-0.2585,-0.2582,-0.258,-0.2586,-0.2568,-0.2573,-0.2574,-0.2575,-0.26,-0.2603,-0.2606,0,0,0,0,0,-0.2679,-0.2686,-0.2678,-0.2676,-0.2659,-0.2652,-0.2649,-0.2633,-0.2624,-0.2627,-0.2614,-0.26,-0.2587,-0.2582,-0.258,-0.2585,-0.2573,-0.2574,-0.2575,-0.2599,-0.2602,-0.2606,0,0,0,0,0,0,-0.2705,-0.2683,-0.2674,-0.2676,-0.2666,-0.2647,-0.265,-0.2638,-0.263,-0.2628,-0.2607,-0.2603,-0.2603,-0.2594,-0.2589,-0.2591,-0.2578,-0.2579,-0.2596,-0.26,-0.2603,-0.2604,-0.2568,0,0,0,0,0,-0.2711,-0.2708,-0.2689,-0.2692,-0.2688,-0.267,-0.2666,-0.2654,-0.2643,-0.2638,-0.2625,-0.2614,-0.2607,-0.2603,-0.2596,-0.2599,-0.2594,-0.2601,-0.2604,-0.2607,-0.2607,-0.2607,-0.261,-0.258,-0.258,-0.258,0,0,-0.2723,-0.2711,-0.271,-0.2697,-0.2688,-0.2684,-0.2666,-0.2663,-0.266,-0.2638,-0.2634,-0.2625,-0.2611,-0.2611,-0.261,-0.2603,-0.2615,-0.2608,-0.261,-0.261,-0.2609,-0.2612,-0.2614,-0.2581,-0.258,-0.258,0,0,-0.2744,-0.2734,-0.2736,-0.2727,-0.2714,-0.2702,-0.2702,-0.2685,-0.2678,-0.2674,-0.2657,-0.2653,-0.2642,-0.2633,-0.2627,-0.2644,-0.2631,-0.2642,-0.2657,-0.2657,-0.2659,-0.2661,-0.2666,-0.2668,-0.2643,-0.2643,-0.2643,0,-0.276,-0.2754,-0.2738,-0.2736,-0.273,-0.2711,-0.2711,-0.2704,-0.2688,-0.2685,-0.2677,-0.2663,-0.2652,-0.265,-0.2654,-0.265,-0.2649,-0.2643,-0.266,-0.2662,-0.2664,-0.2668,-0.267,-0.2644,-0.2644,-0.2644,-0.2644,0,-0.2775,-0.2771,-0.2774,-0.276,-0.2755,-0.2754,-0.2737,-0.2734,-0.2723,-0.2712,-0.2708,-0.2695,-0.2684,-0.2683,-0.2672,-0.2678,-0.2674,-0.2664,-0.2651,-0.2668,-0.2672,-0.2674,-0.2646,-0.2646,-0.2645,-0.2645,0,0,-0.281,-0.2788,-0.2789,-0.2782,-0.2766,-0.2762,-0.2761,-0.2751,-0.2748,-0.2738,-0.2736,-0.2727,-0.2717,-0.271,-0.2698,-0.2698,-0.2711,-0.2688,-0.2687,-0.2692,-0.2716,-0.2724,-0.2726,-0.2703,-0.2703,-0.2704,-0.2717,0,-0.2827,-0.2823,-0.2808,-0.2809,-0.2804,-0.2786,-0.2784,-0.2774,-0.2763,-0.2758,-0.2746,-0.274,-0.2728,-0.2723,-0.2723,-0.271,-0.2716,-0.2709,-0.2699,-0.2699,-0.2702,-0.2728,-0.2736,-0.2749,-0.2719,-0.2719,-0.2719,0,-0.2846,-0.2837,-0.2838,-0.2821,-0.2819,-0.2818,-0.2807,-0.2803,-0.279,-0.2782,-0.2775,-0.2761,-0.2758,-0.2746,-0.2741,-0.2736,-0.2732,-0.2725,-0.2725,-0.2722,-0.271,-0.2725,-0.2753,-0.2755,-0.2722,-0.2721,-0.2721,0,-0.287,-0.2859,-0.2857,-0.2852,-0.2834,-0.2833,-0.2825,-0.2812,-0.2807,-0.2798,-0.2794,-0.2785,-0.2779,-0.2772,-0.2756,-0.2749,-0.2752,-0.2739,-0.2744,-0.2745,-0.2745,-0.2745,-0.2771,-0.2744,-0.2744,-0.2744,-0.2744,0,-0.289,-0.289,-0.2868,-0.2867,-0.2867,-0.285,-0.285,-0.284,-0.2829,-0.2825,-0.2809,-0.2805,-0.2785,-0.2779,-0.2767,-0.2763,-0.2761,-0.2754,-0.2751,-0.2755,-0.2756,-0.2751,-0.2749,-0.2744,-0.2744,-0.2744,-0.2744,0,-0.2916,-0.2902,-0.2899,-0.2881,-0.2877,-0.2878,-0.2862,-0.286,-0.2849,-0.2844,-0.2842,-0.2824,-0.2816,-0.28,-0.2788,-0.2779,-0.2778,-0.2773,-0.2783,-0.278,-0.2786,-0.2785,-0.2809,-0.2811,-0.2784,-0.2784,-0.2784,0,-0.2929,-0.2929,-0.2912,-0.2908,-0.2901,-0.2896,-0.2891,-0.2874,-0.2869,-0.2855,-0.2854,-0.2845,-0.2837,-0.2825,-0.2811,-0.2801,-0.2794,-0.2804,-0.2793,-0.2797,-0.2793,-0.2793,-0.2792,-0.2806,-0.2806,-0.2806,-0.2807,0,-0.2953,-0.2946,-0.294,-0.293,-0.2925,-0.2917,-0.2907,-0.2905,-0.2886,-0.2882,-0.2874,-0.2867,-0.2855,-0.2846,-0.2834,-0.2825,-0.2812,-0.281,-0.2811,-0.2815,-0.282,-0.2816,-0.2788,-0.281,-0.2809,-0.2809,-0.2809,-0.2809,-0.2973,-0.2972,-0.2959,-0.2952,-0.2944,-0.2936,-0.2933,-0.2921,-0.2914,-0.2903,-0.2894,-0.2887,-0.2874,-0.2856,-0.2848,-0.2842,-0.2836,-0.2837,-0.2837,-0.2837,-0.2838,-0.2822,-0.284,-0.284,-0.284,-0.2839,-0.2839,0,-0.2995,-0.2986,-0.298,-0.2968,-0.2963,-0.2952,-0.2941,-0.2937,-0.2931,-0.292,-0.2913,-0.2903,-0.2895,-0.2879,-0.2869,-0.2867,-0.2861,-0.2865,-0.2864,-0.2862,-0.2845,-0.2845,-0.287,-0.287,-0.287,-0.287,-0.287,-0.287,-0.3006,-0.3003,-0.2995,-0.2987,-0.2978,-0.2972,-0.2966,-0.2958,-0.295,-0.294,-0.2933,-0.2923,-0.2911,-0.2899,-0.289,-0.2886,-0.2882,-0.2888,-0.2882,-0.2866,-0.2863,-0.286,-0.286,-0.2888,-0.2888,-0.2899,-0.2899,-0.2899]},{"header":{"parameterUnit":"m.s-1","parameterCategory":1,"la1":30.2991,"la2":30.254,"lo1":-89.0895,"lo2":-89.0444,"dy":0.0017,"dx":0.0017,"nx":28,"ny":28,"refTime":"2025-03-24T03:00:00:Z","depth":0,"parameterNumber":3,"parameterNumberName":"V-component_of_WINDS"},"data":[0,0,0,0,0,0,0,0,0,0,0,0,0,0,0,0,0,0,0,0,0,0,0,0,0,0,0,0,0,0,0,0,0,0,0,0,0,0,0,0,0,0,0,0,0,0,0,0,0,0,0,0,0,0,0,0,0,0,0.5582,0.5584,0,0.5744,0.5746,0.5748,0.5786,0.5785,0.5784,0.5783,0.5955,0.596,0.5966,0,0,0,0,0,0,0,0,0,0,0,0,0,0.5311,0.5316,0.5582,0.5584,0.5586,0.5744,0.5746,0.5749,0.5786,0.5785,0.5784,0.5782,0.5953,0.596,0.5966,0,0,0,0,0,0,0,0,0,0,0,0,0,0.5447,0.5318,0.5582,0.5624,0.5629,0.5744,0.5747,0.5749,0.5787,0.5785,0.5783,0.5782,0.5951,0.5959,0.5967,0.6053,0,0,0.5993,0.5997,0,0,0,0,0,0,0,0,0.5439,0.5457,0.5616,0.5621,0.5627,0.5743,0.5714,0.5851,0.5787,0.5727,0.5783,0.5781,0.5886,0.59,0.5934,0.6061,0.6069,0.5994,0.5999,0.6003,0.6005,0,0,0,0,0,0,0,0.543,0.545,0.5647,0.5618,0.5625,0.5637,0.5654,0.574,0.5814,0.5732,0.5735,0.5754,0.5889,0.5926,0.5939,0.6071,0.5994,0.6001,0.6006,0.601,0.6279,0.6281,0,0,0,0,0,0,0.5412,0.5442,0.5641,0.5651,0.5527,0.5643,0.5663,0.5708,0.5813,0.5828,0.5755,0.5755,0.5912,0.5929,0.5945,0.6054,0.6003,0.601,0.6015,0.6277,0.628,0.6282,0,0,0,0,0,0,0.5406,0.5429,0.5635,0.5548,0.5575,0.5649,0.57,0.5712,0.5749,0.5831,0.5845,0.5779,0.5912,0.5933,0.6026,0.606,0.6014,0.6022,0.6275,0.6278,0.6281,0.6271,0,0,0,0,0,0,0.5398,0.5427,0.5459,0.5548,0.5579,0.5711,0.5702,0.5716,0.5763,0.5764,0.5856,0.587,0.5912,0.6013,0.6034,0.6071,0.6029,0.6272,0.6276,0.628,0.6269,0.6274,0.6278,0,0,0,0,0,0.5388,0.545,0.546,0.5484,0.562,0.5713,0.5731,0.5776,0.5765,0.5799,0.5852,0.5867,0.6053,0.6022,0.6047,0.6086,0.627,0.6275,0.628,0.6267,0.6273,0.6278,0,0,0,0,0,0,0.5365,0.5463,0.5475,0.5567,0.5631,0.5719,0.5763,0.5781,0.5851,0.585,0.5905,0.5925,0.6016,0.606,0.6025,0.6176,0.6161,0.6171,0.6143,0.615,0.6154,0.6142,0.6036,0,0,0,0,0,0.537,0.5436,0.5518,0.5592,0.5624,0.5688,0.573,0.5759,0.5829,0.5857,0.5916,0.5985,0.6059,0.6107,0.6179,0.6275,0.6297,0.6315,0.6319,0.6322,0.633,0.6387,0.6396,0.6298,0.6298,0.6297,0,0,0.5382,0.5444,0.5482,0.5589,0.5642,0.5711,0.571,0.5783,0.5835,0.5868,0.596,0.6006,0.6087,0.6182,0.6227,0.6222,0.6362,0.6328,0.633,0.6337,0.6393,0.6402,0.641,0.6301,0.63,0.63,0,0,0.544,0.5492,0.556,0.5613,0.5693,0.5736,0.5752,0.5838,0.5869,0.5961,0.5988,0.6053,0.6178,0.6235,0.628,0.636,0.6378,0.6383,0.6406,0.6461,0.6468,0.6476,0.6506,0.6516,0.639,0.639,0.639,0,0.5446,0.5548,0.5593,0.5664,0.5712,0.5743,0.5814,0.5864,0.5964,0.5997,0.599,0.6149,0.6205,0.6315,0.6335,0.637,0.6392,0.6373,0.6463,0.6471,0.6478,0.6508,0.6519,0.6391,0.639,0.639,0.639,0,0.5552,0.5623,0.5669,0.5763,0.5816,0.5886,0.5944,0.5992,0.6017,0.6061,0.6156,0.6224,0.6312,0.634,0.6366,0.6455,0.6449,0.6452,0.6439,0.6487,0.6516,0.6528,0.6391,0.6391,0.6391,0.6391,0,0,0.5599,0.5718,0.5734,0.5778,0.5869,0.5926,0.6,0.6084,0.6125,0.6193,0.6258,0.6364,0.6367,0.6418,0.6451,0.6498,0.656,0.6495,0.6498,0.6506,0.6665,0.6663,0.6675,0.6572,0.6574,0.6576,0.6658,0,0.5669,0.5799,0.5842,0.595,0.6018,0.6049,0.6114,0.6178,0.6221,0.6287,0.6336,0.641,0.6408,0.6439,0.6487,0.6542,0.6593,0.6536,0.6635,0.6638,0.6614,0.669,0.6689,0.6763,0.667,0.6672,0.6673,0,0.5768,0.5836,0.5951,0.6035,0.6065,0.6122,0.6203,0.6265,0.6339,0.6368,0.6425,0.6454,0.6535,0.6516,0.6629,0.659,0.6633,0.6665,0.667,0.6682,0.6659,0.6706,0.6788,0.68,0.6691,0.669,0.6688,0,0.5793,0.5914,0.5999,0.6035,0.6135,0.6174,0.6218,0.6291,0.6339,0.6411,0.6444,0.6525,0.657,0.6633,0.6684,0.6665,0.6793,0.6778,0.6821,0.682,0.6848,0.6845,0.6939,0.6872,0.6872,0.6872,0.6872,0,0.5867,0.5936,0.6011,0.6064,0.6143,0.6193,0.6271,0.6317,0.6382,0.6446,0.6478,0.6538,0.6601,0.667,0.671,0.6799,0.6819,0.6846,0.6856,0.6844,0.6841,0.6874,0.687,0.6875,0.6874,0.6874,0.6873,0,0.5908,0.5961,0.6056,0.6142,0.6166,0.6221,0.6296,0.635,0.6394,0.6475,0.6497,0.6568,0.665,0.6707,0.6814,0.6841,0.6938,0.6946,0.6912,0.6917,0.6958,0.6954,0.7077,0.7097,0.7015,0.7016,0.7017,0,0.5952,0.6006,0.6099,0.6143,0.6186,0.6257,0.6306,0.6358,0.6409,0.6499,0.6542,0.6626,0.6696,0.6827,0.689,0.6972,0.6984,0.7022,0.6997,0.6984,0.6987,0.6984,0.6991,0.7026,0.7027,0.7027,0.7028,0,0.6026,0.605,0.6118,0.6197,0.6255,0.632,0.6385,0.642,0.6484,0.6539,0.6623,0.6678,0.6786,0.6871,0.6959,0.7007,0.7029,0.7035,0.705,0.7038,0.7017,0.7031,0.6924,0.7032,0.7032,0.7031,0.7031,0.7031,0.6072,0.6122,0.6195,0.6271,0.6325,0.6386,0.6441,0.6492,0.6562,0.6653,0.668,0.6768,0.6844,0.6964,0.7014,0.7085,0.7082,0.7103,0.7109,0.7113,0.7114,0.7004,0.7101,0.7101,0.7101,0.7101,0.7101,0,0.6148,0.6197,0.6266,0.6356,0.6417,0.643,0.6504,0.6555,0.6631,0.6698,0.6767,0.6865,0.6947,0.7016,0.7102,0.7146,0.7158,0.7167,0.7165,0.7176,0.7111,0.709,0.7155,0.7155,0.7155,0.7155,0.7155,0.7155,0.6196,0.6282,0.6314,0.6429,0.6478,0.6563,0.6604,0.6661,0.6715,0.6822,0.689,0.6934,0.7003,0.7095,0.7172,0.719,0.7221,0.7227,0.7249,0.7187,0.718,0.7175,0.7156,0.7233,0.7233,0.7308,0.7309,0.7309]}]]